GSAT0213 (GALILEO 17) (41861 NORAD) Tracking and Keplerian Element Data

This shows tracking and keplerian element data for the satellite.

Feedback or suggestion? Click here.




ElementValue
Catalog41861
NameGSAT0213 (GALILEO 17)
Epoch Orbit3646
Epoch Day269.26570795
Epoch Year2022
RAAN138.7903
Inclination54.8406
Eccentricity0.000206
Argument of Perigee269.6315
Mean Anonmoly90.4616
Mean Motion1.70472951
Decay Rate4.7E-07
L11 41861U 16069C 22269.26570795 .00000047 00000+0 00000+0 0 9993
L22 41861 54.8406 138.7903 0002060 269.6315 90.4616 1.70472951 36461

Live tracking and technical data element details for GSAT0213 (GALILEO 17) (NORAD 41861). GSAT0213 (GALILEO 17) can be tracked NOW for your location showing map with azimuth and elevation plus other details from your city location.

Track the satellite on the map from your city or location and see movement details for azimuth, elevation, latitude, longitude, range, height, and movement on the map or in text.







IsCatalogInMostPopularTable: catalog: 41861, numindb: 614
Update: records affected: 1



GetName: 41861 GSAT0213 (GALILEO 17)

Hit Count: updated at: Thu, 29 Sep 2022 12:09:11 GMT